Flag Weather past 2 weeks in Enschede, Netherlands

Now
43 °F

Fog.


Feels Like: 37 °F
Forecast: 31 / 38 °F
Wind: 10 mph from Southeast

Location: Deelen

Current Time: Nov 28, 2014 at 5:44:59 AM

Latest Report: Nov 28, 2014 at 4:55 AM


Visibility: 3 mi

Pressure: 29.74 "Hg

Humidity: 93%

Dew point: 41 °F

Location of EnschedeLocation

Historic Weather in Enschede — Graph

°F

Enschede temperature yesterday

Maximum temperature yesterday: 46 °F (at 11:25 AM)
Minimum temperature yesterday: 43 °F (at 12:25 AM)
Average temperature yesterday: 44 °F

Past Weeks' High & Low Weather Summary

 TemperatureHumidityPressure
High57 °F (Nov 23, 12:55 PM)100% (Nov 13, 5:25 AM)30.33 "Hg (Nov 13, 5:25 AM)
Low30 °F (Nov 25, 2:25 AM)71% (Nov 21, 2:25 PM)29.47 "Hg (Nov 16, 3:25 PM)
Average45 °F92%29.93 "Hg
* Reported Nov 13 5:25 AM — Nov 28 4:55 AM, Enschede, Weather by CustomWeather, © 2014

Note: Actual official high and low records may vary slightly from our data, if they occured in-between our weather recording intervals... More about our weather records

Advertising

Enschede weather history for previous 24 hours

 ConditionsComfort  
Time TempWeatherWind HumidityBarometerVisibility
4:55 AM
Nov 28
43 °FFog.10 mph93%29.74 "Hg2 mi
4:25 AM43 °FFog.9 mph93%29.74 "Hg3 mi
3:55 AM43 °FFog.10 mph100%29.74 "Hg2 mi
3:25 AM43 °FFog.10 mph100%29.74 "Hg3 mi
2:55 AM43 °FFog.12 mph93%29.74 "Hg3 mi
2:25 AM43 °FFog.9 mph100%29.74 "Hg3 mi
1:55 AM43 °FFog.9 mph100%29.74 "Hg2 mi
1:25 AM43 °FFog.9 mph100%29.74 "Hg2 mi
12:55 AM43 °FFog.8 mph93%29.74 "Hg3 mi
12:25 AM43 °FFog.8 mph93%29.74 "Hg2 mi
11:55 PM
Nov 27
43 °FFog.9 mph93%29.74 "Hg2 mi
11:25 PM43 °FFog.9 mph93%29.74 "Hg2 mi
10:55 PM43 °FFog.8 mph93%29.74 "Hg3 mi
10:25 PM43 °FFog.9 mph93%29.74 "Hg2 mi
9:55 PM43 °FFog.9 mph93%29.74 "Hg2 mi
9:25 PM43 °FFog.9 mph100%29.74 "Hg2 mi
8:55 PM43 °FFog.9 mph100%29.74 "Hg2 mi
8:25 PM43 °FFog.9 mph100%29.74 "Hg3 mi
7:55 PM43 °FPartly cloudy.12 mph100%29.74 "Hg2 mi
7:25 PM43 °FLight rain. Partly cloudy.12 mph100%29.74 "Hg2 mi
6:55 PM43 °FLight rain. Low clouds.9 mph100%29.74 "Hg2 mi
6:25 PM45 °FLight rain. Mostly cloudy.10 mph93%29.71 "Hg2 mi
5:55 PM45 °FDrizzle. Mostly cloudy.7 mph93%29.71 "Hg2 mi
5:25 PM45 °FDrizzle. Mostly cloudy.7 mph93%29.74 "Hg3 mi
4:55 PM45 °FPartly cloudy.7 mph93%29.74 "Hg4 mi
4:25 PM46 °FFog.8 mph87%29.71 "Hg5 mi
3:55 PM46 °FFog.8 mph87%29.71 "Hg6 mi
3:25 PM46 °FFog.8 mph87%29.74 "Hg6 mi
2:55 PM46 °FFog.7 mph87%29.74 "Hg6 mi
2:25 PM46 °FMostly cloudy.8 mph87%29.74 "HgN/A
1:55 PM46 °FMostly cloudy.7 mph82%29.74 "HgN/A
1:25 PM46 °FOvercast.8 mph87%29.74 "HgN/A
12:55 PM46 °FMostly cloudy.10 mph82%29.74 "HgN/A
12:25 PM46 °FMostly cloudy.12 mph82%29.77 "HgN/A
11:55 AM46 °FOvercast.8 mph82%29.77 "HgN/A
11:25 AM46 °FOvercast.8 mph82%29.77 "HgN/A
10:55 AM45 °FOvercast.9 mph87%29.77 "HgN/A
10:25 AM45 °FOvercast.10 mph87%29.77 "HgN/A
9:55 AM45 °FOvercast.10 mph87%29.77 "HgN/A
9:25 AM45 °FMostly cloudy.13 mph81%29.77 "HgN/A
8:55 AM45 °FOvercast.8 mph81%29.77 "HgN/A
8:25 AM45 °FFog.8 mph81%29.77 "Hg6 mi
7:55 AM45 °FFog.7 mph81%29.77 "Hg6 mi
7:25 AM43 °FFog.8 mph87%29.77 "Hg6 mi
6:55 AM43 °FDrizzle. Mostly cloudy.9 mph87%29.77 "Hg5 mi
6:25 AM43 °FFog.9 mph87%29.80 "Hg6 mi
5:55 AM43 °FFog.9 mph87%29.80 "Hg6 mi
5:25 AM43 °FFog.8 mph87%29.80 "Hg6 mi
Weather by CustomWeather, © 2014

See weather overviewHow to use our weather pages